Regional Weather Roundup
Issued by NWS Albany, NY

Home | Current Version | Previous Version | Text Only | Print | Product List | Glossary On
Versions: 1 2 3 4 5 6 7 8 9 10 11 12 13 14 15 16 17 18 19 20 21 22 23 24 25 26 27 28 29 30 31 32 33 34 35 36 37 38 39 40 41 42 43 44 45 46 47 48
000
ASUS41 KALY 190310
RWRALY

NEW YORK STATE HOURLY WEATHER ROUNDUP
NATIONAL WEATHER SERVICE ALBANY NY
1100 PM EDT WED APR 18 2018

NOTE: "FAIR" INDICATES FEW OR NO CLOUDS BELOW 12,000 FEET WITH NO
SIGNIFICANT WEATHER AND/OR NO OBSTRUCTIONS TO VISIBILITY.

NYZ032-033-038>043-046>054-057>066-NYZ062>081-082-084-190400-
EAST


CITY           SKY/WX    TMP DP  RH WIND       PRES   REMARKS
ALBANY         CLOUDY    40  28  62 NW6       29.78F
GLENS FALLS    CLOUDY    39  28  64 SW5       29.75S
POUGHKEEPSIE   FAIR      35  28  75 CALM      29.77F
NEWBURGH       CLEAR     36  28  75 CALM      29.78F
MONTGOMERY     FAIR      32  27  81 SW3       29.76F
WHITE PLAINS   FAIR      39  30  70 NW3       29.77F
ISLIP          FAIR      42  38  85 SE3       29.79F
NEW YORK CITY  FAIR      50  29  44 MISG      29.77F
CENTRAL PARK   FAIR      49  30  48 CALM      29.80F
$$

NYZ005>009-017-018-044>046-055-056-190400-
CENTRAL


CITY           SKY/WX    TMP DP  RH WIND       PRES   REMARKS
FULTON           N/A    N/A N/A N/A MISG      29.81R
SYRACUSE       CLOUDY    37  29  72 W10       29.81R WCI  30
ROME           CLOUDY    36  30  79 W6        29.80R WCI  31
ELMIRA         CLOUDY    34  29  82 CALM      29.79F
BINGHAMTON     FAIR      32  25  75 W3        29.76R
MONTICELLO     FAIR      30  27  88 CALM      29.76F
$$

NYZ026>034-041>043-087-190400-
NORTH


CITY           SKY/WX    TMP DP  RH WIND       PRES   REMARKS
WATERTOWN      CLOUDY    36  33  89 SW10      29.77R WCI  28
FORT DRUM      NOT AVBL
OGDENSBURG     LGT RAIN  36  34  94 SW5       29.73S WCI  32
MASSENA        CLOUDY    36  36 100 SW10      29.73S WCI  28
SARANAC LAKE   LGT SNOW  31  30  96 SW8       29.66F FOG     WCI  23
PLATTSBURGH    FAIR      40  30  67 VRB5      29.69S
$$

NYZ001>004-010>016-019>021-085-190400-
WEST


CITY           SKY/WX    TMP DP  RH WIND       PRES   REMARKS
NIAGARA FALLS  CLOUDY    36  28  73 W6        29.82F WCI  31
BUFFALO        CLOUDY    34  30  85 SW6       29.82F WCI  29
DUNKIRK        MIX PCPN  33  29  85 CALM      29.83F
JAMESTOWN      FLURRIES  29  26  89 N10       29.76F WCI  20
WELLSVILLE     MIX PCPN  32  28  85 MISG      29.77R
ROCHESTER      CLOUDY    37  29  72 W9        29.83S WCI  30
PENN YAN       CLOUDY    36  25  64 W12       29.80F WCI  28
$$

             KEY
       WCI = WIND CHILL INDEX
       VSB = VISIBILITY
       HX  = HEAT INDEX
$$



USA.gov is the U.S. government's official web portal to all federal, state and local government web resources and services.